Weather History for EGBB - October, 2013

Change the Weather History Date:

Thursday, October 3, 2013

  Actual Average Record
Temperature  
Mean Temperature 60 °F -  
Max Temperature 64 °F 56 °F 77 °F (2011)
Min Temperature 57 °F 42 °F 37 °F (1998)
Degree Days  
Heating Degree Days 4    
Growing Degree Days 10 (Base 50)    
Moisture  
Dew Point 59 °F    
Average Humidity 94    
Maximum Humidity 100    
Minimum Humidity 88    
Precipitation  
Precipitation 0.00 in 0.07 in - ()
Sea Level Pressure  
Sea Level Pressure 29.73 in    
Wind  
Wind Speed 9 mph ()    
Max Wind Speed 16 mph    
Max Gust Speed 22 mph    
Visibility 4.2 miles    
Events Fog , Rain    
Averages and records for this station are not official NWS values.
T = Trace of Precipitation, MM = Missing Value Source: Averaged Metar Reports

Daily Weather History Graph

Daily Weather History Graph

Search for Another Location

Airport or City:

Trip Planner

Search our weather history database for the weather conditions in past years. The results will help you decide how hot, cold, wet, or windy it might be!

Date:

Astronomy

Oct. 03, 2013 Rise Set
Actual Time 7:11 AM BST 6:39 PM BST
Civil Twilight 6:37 AM BST 7:13 PM BST
Nautical Twilight 5:58 AM BST 7:52 PM BST
Astronomical Twilight 5:17 AM BST 8:33 PM BST
Moon 5:21 AM BST (10/3) 5:44 PM BST (10/3)
Length of Visible Light 12h 35m
Length of Day
11h 27m
Waning Crescent, 3% of the Moon is Illuminated
Oct 3
Waning Crescent
Oct 5
New
Oct 12
First Quarter
Oct 19
Full
Oct 27
Last Quarter

Hourly Weather History & Observations

Time (BST) Temp. Dew Point Humidity Pressure Visibility Wind Dir Wind Speed Gust Speed Precip Events Conditions
12:20 AM 60.8 °F 59.0 °F 94% 29.83 in 6.2 mi SE 10.4 mph - N/A   Overcast
12:50 AM 60.8 °F 59.0 °F 94% 29.83 in 6.2 mi SSE 11.5 mph - N/A   Mostly Cloudy
1:20 AM 60.8 °F 57.2 °F 88% 29.83 in 6.2 mi SSE 9.2 mph - N/A   Mostly Cloudy
1:50 AM 59.0 °F 57.2 °F 94% 29.83 in 5.0 mi SSE 9.2 mph - N/A   Partly Cloudy
2:20 AM 59.0 °F 57.2 °F 94% 29.83 in 5.0 mi SE 9.2 mph - N/A   Unknown
2:50 AM 59.0 °F 57.2 °F 94% 29.83 in 3.7 mi SE 9.2 mph - N/A   Unknown
3:20 AM 59.0 °F 59.0 °F 100% 29.83 in 3.1 mi SSE 8.1 mph - N/A   Haze
3:50 AM 59.0 °F 59.0 °F 100% 29.83 in 3.1 mi SE 6.9 mph - N/A Rain Light Rain
4:20 AM 59.0 °F 57.2 °F 94% 29.83 in - SE 6.9 mph - N/A   Mostly Cloudy
4:50 AM 59.0 °F 57.2 °F 94% 29.80 in 2.5 mi SE 8.1 mph - N/A   Overcast
5:20 AM 59.0 °F 57.2 °F 94% 29.80 in 3.1 mi SE 10.4 mph - N/A   Overcast
5:50 AM 59.0 °F 57.2 °F 94% 29.80 in 1.9 mi SE 9.2 mph - N/A   Overcast
6:20 AM 59.0 °F 57.2 °F 94% 29.80 in 2.2 mi SE 10.4 mph - N/A   Overcast
6:50 AM 57.2 °F 57.2 °F 100% 29.80 in 1.6 mi SE 12.7 mph - N/A   Overcast
7:20 AM 57.2 °F 57.2 °F 100% 29.80 in 1.6 mi SE 10.4 mph - N/A   Overcast
7:50 AM 57.2 °F 57.2 °F 100% 29.80 in 0.6 mi SE 11.5 mph - N/A   Overcast
8:20 AM 59.0 °F 57.2 °F 94% 29.77 in 0.4 mi SE 10.4 mph - N/A Fog Fog
8:50 AM 59.0 °F 59.0 °F 100% 29.77 in 0.6 mi SE 9.2 mph - N/A   Overcast
9:20 AM 59.0 °F 59.0 °F 100% 29.77 in 1.1 mi SE 10.4 mph - N/A   Overcast
9:50 AM 59.0 °F 59.0 °F 100% 29.77 in 1.1 mi SE 10.4 mph - N/A   Overcast
10:20 AM 60.8 °F 59.0 °F 94% 29.77 in - ESE 10.4 mph - N/A   Haze
10:50 AM 62.6 °F 59.0 °F 88% 29.74 in - ESE 8.1 mph - N/A   Haze
11:20 AM 62.6 °F 59.0 °F 88% 29.74 in 3.1 mi East 8.1 mph - N/A   Haze
11:50 AM 62.6 °F 59.0 °F 88% 29.74 in 3.1 mi ESE 12.7 mph - N/A   Haze
12:20 PM 62.6 °F 59.0 °F 88% 29.71 in 3.7 mi ESE 10.4 mph - N/A   Mostly Cloudy
12:50 PM 62.6 °F 59.0 °F 88% 29.71 in 3.7 mi East 10.4 mph - N/A   Mostly Cloudy
1:20 PM 62.6 °F 60.8 °F 94% 29.68 in 3.1 mi ESE 10.4 mph - N/A Rain Light Rain
1:50 PM 62.6 °F 60.8 °F 94% 29.68 in - ESE 9.2 mph - N/A Rain Light Rain
2:20 PM 62.6 °F 60.8 °F 94% 29.65 in 3.7 mi ESE 10.4 mph 21.9 mph N/A   Overcast
2:50 PM 62.6 °F 60.8 °F 94% 29.65 in 3.7 mi ESE 15.0 mph - N/A Rain Light Rain
3:20 PM 62.6 °F 60.8 °F 94% 29.65 in 3.7 mi SE 16.1 mph - N/A Rain Light Rain
3:50 PM 60.8 °F 60.8 °F 100% 29.62 in 3.7 mi SE 13.8 mph - N/A Rain Light Rain
4:20 PM 62.6 °F 60.8 °F 94% 29.62 in 3.7 mi SE 16.1 mph - N/A   Overcast
4:50 PM 62.6 °F 60.8 °F 94% 29.62 in 6.2 mi SE 16.1 mph - N/A   Overcast
5:20 PM 64.4 °F 60.8 °F 88% 29.62 in 6.2 mi SSE 15.0 mph - N/A   Overcast
5:50 PM 64.4 °F 60.8 °F 88% 29.62 in 6.2 mi SSE 16.1 mph - N/A   Mostly Cloudy
6:20 PM 64.4 °F 62.6 °F 94% 29.62 in 6.2 mi SSE 13.8 mph - N/A   Mostly Cloudy
6:50 PM 64.4 °F 60.8 °F 88% 29.65 in 6.2 mi SSE 12.7 mph - N/A   Mostly Cloudy
7:20 PM 64.4 °F 60.8 °F 88% 29.65 in 6.2 mi South 10.4 mph - N/A   Mostly Cloudy
7:50 PM 62.6 °F 60.8 °F 94% 29.65 in 6.2 mi South 10.4 mph - N/A   Scattered Clouds
8:20 PM 62.6 °F 60.8 °F 94% 29.68 in 6.2 mi SSE 10.4 mph - N/A   Mostly Cloudy
8:50 PM 64.4 °F 60.8 °F 88% 29.68 in 6.2 mi SSE 9.2 mph - N/A   Mostly Cloudy
9:20 PM 64.4 °F 60.8 °F 88% 29.68 in 6.2 mi SSE 10.4 mph - N/A   Overcast
9:50 PM 62.6 °F 60.8 °F 94% 29.68 in 6.2 mi SSE 8.1 mph - N/A   Mostly Cloudy
10:20 PM 62.6 °F 60.8 °F 94% 29.71 in 6.2 mi SSE 8.1 mph - N/A   Mostly Cloudy
10:50 PM 60.8 °F 59.0 °F 94% 29.68 in 6.2 mi SSE 8.1 mph - N/A   Partly Cloudy
11:20 PM 59.0 °F 59.0 °F 100% 29.68 in 6.2 mi SSE 6.9 mph - N/A   Partly Cloudy
11:50 PM 59.0 °F 59.0 °F 100% 29.68 in 5.6 mi SSE 9.2 mph - N/A   Unknown